Regional Weather Roundup
Issued by NWS San Angelo, TX

Home | Current Version | Previous Version | Text Only | Print | Product List | Glossary On
Versions: 1 2 3 4 5 6 7 8 9 10 11 12 13 14 15 16 17 18 19 20 21 22 23 24 25 26 27 28 29 30 31 32 33 34 35 36 37 38 39 40 41 42 43 44 45 46 47 48 49 50
000
ASUS44 KSJT 300211
RWRSJT
WEST CENTRAL TEXAS REGIONAL WEATHER ROUNDUP
NATIONAL WEATHER SERVICE SAN ANGELO TX
900 PM CDT FRI JUL 29 2016

NOTE: "FAIR" INDICATES FEW OR NO CLOUDS BELOW 12,000 FEET WITH NO
SIGNIFICANT WEATHER AND/OR OBSTRUCTIONS TO VISIBILITY.

TXZ049-054-064>066-071>073-076>078-098-099-113-114-127-128-139-140-
154-155-168>170-300300
...LOCATIONS ACROSS WEST CENTRAL TEXAS...

CITY           SKY/WX    TMP DP  RH WIND       PRES   REMARKS
SAN ANGELO     CLEAR     88  59  37 SE7       29.95R
ABILENE        CLEAR     86  69  56 SE7       29.96R
DYESS AFB      CLEAR     88  68  50 SE10      29.94R
JUNCTION       CLEAR     88  61  40 SE10      29.97R
SWEETWATER     CLEAR     85  62  45 SE5       30.00R
BROWNWOOD      CLEAR     86  64  48 SE7       29.95R
COLEMAN        CLEAR     84  65  51 S3        29.96S
SONORA         CLEAR     88  61  40 S8        30.02R
OZONA          FAIR      84  59  42 S8        30.01S
BRADY          NOT AVBL
$$

TEXAS PANHANDLE/OKLAHOMA PANHANDLE

CITY           SKY/WX    TMP DP  RH WIND       PRES   REMARKS
AMARILLO       CLOUDY    82  58  43 SE9       30.05R
BORGER         CLOUDY    85  63  47 SE10      30.01R
CANADIAN       PTCLDY    82  65  57 S3        30.00R
DALHART        TSTM      67  58  72 NW10      30.16R
DUMAS          CLOUDY    71  55  57 W26G40    30.10R
GUYMON         NOT AVBL
HEREFORD       CLOUDY    85  58  40 S9        30.06F
PAMPA          CLOUDY    80  64  56 SE9       30.05S
PERRYTON       CLOUDY    80  65  61 SE6       30.04R
$$

SOUTHERN PANHANDLE/SOUTH PLAINS/ROLLING PLAINS

CITY           SKY/WX    TMP DP  RH WIND       PRES   REMARKS
LUBBOCK        PTCLDY    88  56  33 S10       30.02R
SNYDER           N/A     89  61  38 SE7       29.98R
CHILDRESS      CLEAR     88  61  40 E5        29.95R
SEMINOLE       CLEAR     87  55  33 SE6       30.03R
$$

PERMIAN BASIN

CITY           SKY/WX    TMP DP  RH WIND       PRES   REMARKS
MIDLAND        CLEAR     89  58  34 SE13      29.98R
ODESSA         CLEAR     90  57  32 S14       29.99R
WINK           CLEAR     90  56  31 SE12      29.94S
$$

FAR WEST/SOUTHWEST MOUNTAINS/TRANS PECOS

CITY           SKY/WX    TMP DP  RH WIND       PRES   REMARKS
ALPINE         CLOUDY    76  55  48 S10       30.16R
DRYDEN           N/A     85  67  54 SE9       29.96R
EL PASO        MOCLDY    92  48  22 E14       29.97R
FORT STOCKTON  CLEAR     84  61  45 SE15      29.99R
GUADALUPE PASS MOCLDY    80  54  40 SE10      30.16R
MARFA          CLOUDY    69  65  86 NE6       30.14S
PECOS          CLEAR     90  59  35 SE16      29.93S
$$

DALLAS/FORT WORTH METROPLEX

CITY           SKY/WX    TMP DP  RH WIND       PRES   REMARKS
DFW AIRPORT    PTCLDY    88  68  51 S6        29.90R
FTW MEACHAM    CLEAR     89  69  51 S9        29.90R
DAL-EXECUTIVE  CLEAR     88  68  51 S5        29.91R
GRAND PRAIRIE  CLEAR     89  68  49 S6        29.92R
ADDISON        CLEAR     90  68  48 S6        29.92S
MESQUITE       CLEAR     84  73  68 SE7       29.91S
LANCASTER      CLEAR     87  72  62 CALM      29.92R
$$

NORTH CENTRAL TEXAS

CITY           SKY/WX    TMP DP  RH WIND       PRES   REMARKS
SHRMAN/DENISON PTCLDY    88  72  58 CALM      29.93R
GAINESVILLE    PTCLDY    84  71  65 S3        29.93R
BRIDGEPORT     CLEAR     82  74  78 CALM      29.93S
DENTON         CLEAR     83  75  77 S5        29.90R
WAXAHACHIE     CLEAR     83  72  67 S5        29.93R
GRANBURY       CLEAR     89  69  51 S7        29.92S
$$

WESTERN NORTH TEXAS

CITY           SKY/WX    TMP DP  RH WIND       PRES   REMARKS
WICHITA FALLS  CLEAR     86  70  58 S9        29.90R
VERNON         CLEAR     91  56  31 CALM      29.92S
BRECKENRIDGE   CLEAR     86  69  56 SE6       29.93R
COMANCHE       CLEAR     85  66  53 SE6       29.95S
$$

CENTRAL AND SOUTH CENTRAL TEXAS

CITY           SKY/WX    TMP DP  RH WIND       PRES   REMARKS
AUSTIN/BERGSTM PTCLDY    87  73  62 S9        29.91S
WACO           CLEAR     86  70  58 E5        29.91R
HILLSBORO      CLEAR     83  69  63 SE3       29.93R
TEMPLE         CLEAR     88  68  51 S7        29.93R
KILLEEN-GRAY   PTCLDY    84  65  52 SE8       29.93S
FORT HOOD      CLEAR     87  64  45 S8        29.91S
GEORGETOWN     CLEAR     91  66  43 SE7       29.94R
LAGO VISTA     FAIR      86  66  50 CALM      29.97R
SAN MARCOS     CLOUDY    82  70  65 S8        29.96R
NEW BRAUNFELS  PTCLDY    81  69  67 S6        29.92R
RANDOLPH AFB   MOCLDY    80  72  78 SE6       29.95R
SAN ANTONIO    MOCLDY    83  67  58 SE10      29.95R
STINSON        CLOUDY    84  68  58 SE8       29.92R
PLEASANTON     NOT AVBL
LA GRANGE        N/A     86  74  67 S5        29.92R
GIDDINGS       CLEAR     84  72  66 CALM      29.96S
$$

EAST TEXAS

CITY           SKY/WX    TMP DP  RH WIND       PRES   REMARKS
PARIS          CLEAR     84  68  58 S8        29.93R
CLARKSVILLE    NOT AVBL
TYLER          CLEAR     84  72  67 S5        29.94R
LONGVIEW       CLEAR     83  74  74 S7        29.93R
PALESTINE      CLEAR     83  72  70 SE5       29.95R
NACOGDOCHES    CLEAR    N/A N/A N/A CALM      29.93S
$$

TEXAS HILL COUNTRY AND EDWARDS PLATEAU

CITY           SKY/WX    TMP DP  RH WIND       PRES   REMARKS
LLANO          CLEAR     88  63  42 SE5       29.97R
HORSESHOE BAY  FAIR      85  66  52 S3        29.95R
KERRVILLE      CLEAR     84  64  51 S7        29.98R
FREDERICKSBRG  CLEAR     84  63  48 S5        29.98R
ROCKSPRINGS    CLEAR     84  64  51 SE10      30.03R
HONDO          CLOUDY    85  70  60 SE9       29.96R
UVALDE         CLEAR     85  70  60 SE13G20   29.95R
DEL RIO        CLEAR     89  65  44 SE8       29.91R
$$

SOUTHEAST TEXAS

CITY           SKY/WX    TMP DP  RH WIND       PRES   REMARKS
COLLEGE STN    CLEAR     88  73  61 SE12      29.93R
CALDWELL       CLEAR     84  72  65 CALM      29.95R
CROCKETT       PTCLDY    82  72  69 CALM      29.97S
BRENHAM        PTCLDY    87  74  66 SE9       29.94S
HUNTSVILLE     CLEAR     85  71  63 VRB5      29.95R
CONROE         CLEAR     84  76  76 SE7       29.95R
HOUSTON BUSH   PTCLDY    86  73  65 S7        29.95S
HOUSTON HOBBY  PTCLDY    83  75  77 S7        29.95S
PERLAND        CLEAR     86  76  71 S7        29.97S
WHARTON          N/A     82  75  81 SE6         N/A
$$

THE UPPER TEXAS COAST

CITY           SKY/WX    TMP DP  RH WIND       PRES   REMARKS
ORANGE         CLEAR     83  72  69 S5        29.98S
PORT ARTHUR    CLEAR     81  75  82 S6        29.96R
GALVESTON      PTCLDY    85  76  74 S13       29.98R
ANGLETON       CLEAR     85  76  74 SE6       29.96S
BAY CITY       CLEAR     82  77  83 SE6       29.96S
$$

TEXAS COASTAL BEND, RIO GRANDE PLAINS DEEP SOUTH TEXAS

CITY           SKY/WX    TMP DP  RH WIND       PRES   REMARKS
VICTORIA       CLEAR     83  74  74 S9        29.94R
BEEVILLE       FAIR      81  76  86 SE7       29.94R
ROCKPORT       CLEAR     85  76  74 SE17      29.94R
PORT ARANSAS   CLEAR     85  78  80 SE12G17   29.95R
PORT LAVACA    CLEAR     82  77  84 SE8       29.95R
CORPUS CHRISTI PTCLDY    85  77  77 SE15      29.95R
KINGSVILLE NAS CLEAR     83  78  85 SE13      29.94R
COTULLA        CLEAR     81  74  79 SE8       29.93R
LAREDO         MOCLDY    81  73  76 NE9       29.93R
BROWNSVILLE    CLEAR     84  76  76 SE13      29.94R
PORT ISABEL    PTCLDY    85  76  74 SE12      29.94R
HEBBRONVILLE   PTCLDY    84  70  62 E8        29.96R
MCALLEN        CLEAR     90  71  53 SE16G25   29.92R
WESLACO        CLEAR     83  24  11 SE12G18   29.92R
FALFURRIAS     CLEAR     81  74  81 SE7       29.93R
EDINBURG       PTCLDY    89  71  56 SE10      29.93R
$$




USA.gov is the U.S. government's official web portal to all federal, state and local government web resources and services.